Theta_e
292 292 292 292 293 295 296 297 299 301 303 305 307 308 309 310 311 311 310 311 313 313 314 314 313 312 311 308 305 304 305 306 306 305 305 305 305 306 306 305 306 306 307 307 307 308 308 308 308 308 309 310 311 309 309 310 311 312 312 311 311 310 309 307 306 307 306 305 306 307 307 307 307 307 306 303 301 301 302 303 302 298 298 299 298
292 292 292 292 293 294 295 297 299 300 301 303 305 305 307 309 309 308 308 310 311 310 310 310 308 307 306 303 301 301 301 302 301 301 301 301 301 302 302 302 303 303 303 303 304 304 304 304 304 304 304 305 305 305 305 306 307 308 308 308 308 307 305 302 303 304 301 299 300 301 302 304 305 305 303 301 301 303 304 303 300 299 300 300 297
293 291 291 291 292 293 294 295 296 297 299 301 302 303 305 306 306 306 306 307 307 306 307 305 304 303 302 301 300 300 299 299 299 298 299 299 299 299 299 299 300 300 300 300 300 300 300 301 301 301 301 302 302 303 303 303 303 303 304 305 304 304 302 300 301 301 299 299 300 300 300 300 303 301 299 301 303 302 301 300 300 300 300 298 297
294 292 290 290 291 292 293 293 294 296 298 299 300 301 302 303 304 304 304 304 303 303 303 302 301 301 301 300 299 298 297 297 298 297 298 298 298 298 298 298 298 298 298 298 298 298 298 298 298 298 298 299 299 300 300 300 300 300 301 302 303 302 300 299 299 298 298 299 299 299 298 298 301 299 296 300 300 299 300 300 300 299 298 298 299
295 293 291 290 290 290 291 291 293 295 297 298 299 300 301 301 302 303 303 302 302 301 301 301 301 300 299 299 298 297 297 297 297 296 296 297 297 297 297 297 297 297 297 297 297 297 296 296 296 296 296 296 296 296 296 296 297 297 298 299 300 300 299 299 298 298 297 297 297 298 298 299 298 296 296 299 298 298 299 299 298 298 298 299 298
293 292 290 289 289 289 290 290 291 293 294 296 298 299 300 301 301 302 302 301 301 301 301 301 300 300 299 299 298 297 294 292 292 292 293 293 293 293 294 293 294 293 293 293 293 293 293 293 294 294 294 294 294 294 294 294 294 295 295 296 296 297 298 298 297 297 297 297 297 296 297 297 295 295 297 298 298 298 297 297 297 298 297 297 298
293 291 290 289 289 289 289 290 290 291 292 293 296 298 299 300 300 301 301 300 300 300 300 300 300 299 299 297 295 293 290 286 287 288 288 289 289 289 289 289 289 289 289 289 289 289 289 289 289 290 290 289 290 290 291 291 291 292 292 293 293 293 294 295 294 295 296 296 296 296 296 296 295 295 296 296 297 297 296 297 297 296 296 296 296
295 293 290 289 289 288 288 289 289 289 290 292 295 297 298 299 299 300 300 299 299 299 299 299 299 298 296 294 291 289 287 286 285 286 286 287 287 287 287 287 287 287 287 287 287 287 287 287 287 287 287 287 287 287 287 288 288 288 288 288 289 289 290 291 292 292 293 293 293 293 294 294 295 295 294 294 295 295 296 297 296 294 294 294 294
294 293 291 289 289 288 288 288 288 289 290 292 294 296 297 298 298 298 298 298 298 298 298 297 296 295 294 292 289 286 286 286 286 286 286 286 286 286 286 286 286 286 286 286 286 286 286 286 286 286 286 286 286 286 286 286 286 286 286 286 286 286 286 287 288 289 290 290 290 290 290 291 292 293 293 293 293 294 295 295 294 292 292 292 291
292 290 290 289 288 288 288 288 288 289 289 291 293 294 296 296 297 297 296 296 296 296 296 295 294 293 292 291 289 286 286 286 286 286 286 286 286 286 286 286 286 286 286 286 286 286 286 286 286 286 285 285 285 285 285 286 285 285 285 285 286 286 285 285 286 286 286 287 287 287 288 289 291 292 292 292 292 293 293 293 293 292 292 291 289
293 290 289 289 288 288 288 288 288 288 288 289 291 292 293 294 295 295 293 293 293 293 293 293 292 292 291 290 288 287 287 287 286 286 286 286 286 285 285 285 285 285 285 285 285 285 285 285 285 285 285 285 285 285 285 285 285 285 285 285 285 285 285 285 285 285 285 285 285 285 286 287 289 290 290 291 291 292 291 292 292 291 291 291 288
295 292 290 289 288 288 288 288 287 287 288 288 289 290 291 291 293 293 291 290 291 291 291 291 290 290 289 289 288 287 287 287 287 286 286 286 285 285 285 285 285 285 285 285 285 285 285 285 285 285 285 284 284 284 284 284 284 284 284 284 284 284 284 284 284 284 284 284 284 284 284 284 285 286 286 287 289 290 290 290 291 290 290 290 288
295 294 291 288 288 288 287 287 287 287 287 287 288 289 289 290 291 291 289 288 289 289 289 289 288 288 288 288 287 287 287 287 286 286 286 286 286 285 286 285 285 285 285 285 284 284 284 284 284 284 284 284 284 284 284 284 284 284 284 284 284 284 284 283 283 283 283 283 283 284 284 283 283 284 284 284 285 287 288 289 289 289 289 289 287
295 294 291 288 288 288 287 287 286 286 287 286 287 288 288 289 289 289 288 287 288 288 288 288 287 287 287 287 287 287 287 286 286 286 286 286 286 286 285 285 285 285 284 284 284 284 284 284 284 284 284 284 284 284 284 284 284 284 284 284 283 283 283 283 283 283 283 283 283 283 283 283 282 282 282 282 283 284 286 288 288 288 288 288 288
294 293 291 288 288 288 287 287 286 286 286 286 287 287 288 288 288 288 287 287 287 287 287 287 287 286 286 286 286 286 286 286 286 286 286 286 286 285 285 285 284 284 284 284 284 284 284 284 284 284 284 284 284 284 284 284 284 284 283 283 283 283 283 283 283 283 283 283 283 283 283 283 283 282 282 282 281 282 283 285 286 286 287 287 287
293 293 291 289 289 288 287 287 286 286 286 286 286 287 287 287 287 287 287 286 287 286 287 286 286 286 286 286 286 286 286 286 286 285 285 285 285 285 285 284 284 284 284 284 284 284 284 284 284 284 284 284 283 284 284 283 283 283 283 283 283 283 283 283 283 283 284 284 283 283 283 283 283 283 282 282 282 281 281 282 284 285 286 286 286
293 293 291 289 289 289 288 287 286 286 286 286 286 286 287 287 287 287 286 286 286 286 286 286 286 286 286 286 286 286 286 286 285 285 285 285 285 285 284 284 284 284 283 283 283 283 283 283 283 283 283 283 283 283 283 283 283 283 283 283 283 283 283 283 283 283 283 283 283 282 282 282 282 282 282 282 282 281 281 281 282 283 285 285 285
293 292 290 289 289 289 288 287 286 286 286 286 286 286 286 286 287 286 286 286 286 286 286 286 286 286 285 285 285 285 285 285 285 285 285 285 284 284 284 284 284 283 283 283 283 283 283 283 283 283 283 283 283 283 283 283 283 283 283 283 283 283 283 283 283 282 282 282 282 282 281 281 281 281 281 281 281 281 281 281 280 281 283 284 284
294 292 290 288 289 289 288 287 287 286 286 286 286 286 286 286 286 286 286 286 286 286 286 285 286 285 285 285 285 285 285 285 285 285 284 284 284 284 284 284 284 284 284 284 284 284 284 284 284 283 283 283 283 283 283 283 283 283 283 283 283 283 283 283 283 283 282 282 282 282 281 281 280 280 280 280 280 279 279 280 280 280 281 282 283
293 292 290 288 289 289 288 287 287 286 286 286 286 286 286 286 286 286 285 285 285 285 285 285 285 285 285 285 285 285 285 285 285 284 284 284 284 284 284 284 284 284 284 284 284 284 284 284 284 283 283 283 283 283 283 283 283 282 282 282 283 283 283 283 283 283 282 282 282 282 281 281 281 280 280 279 279 279 278 279 279 280 280 281 282
293 292 290 289 289 289 288 287 287 286 286 286 286 286 286 286 286 286 286 285 285 285 286 286 285 285 285 285 285 285 285 285 284 284 284 284 284 284 284 284 284 284 284 284 284 284 284 283 283 283 283 283 282 282 282 282 282 282 282 282 282 282 282 282 282 282 282 281 281 281 281 280 280 280 279 279 279 278 278 278 278 279 280 280 281
293 292 290 288 289 289 288 287 287 286 286 286 286 286 286 286 286 286 286 286 286 285 286 286 285 285 285 285 285 285 285 285 285 285 285 285 285 285 285 285 284 284 284 284 284 283 283 283 283 282 282 282 282 281 281 281 281 281 281 281 281 281 281 281 281 281 281 280 280 279 279 279 279 278 278 278 278 278 277 277 278 278 279 279 280
293 291 289 288 289 290 289 287 286 287 286 286 287 286 286 286 286 286 286 286 286 286 286 286 286 285 285 285 285 285 285 285 285 286 285 286 286 285 285 285 285 284 284 284 283 283 283 282 282 282 281 281 281 281 280 280 280 280 280 280 280 280 280 280 280 279 279 279 278 278 278 278 277 277 277 277 277 277 277 277 277 277 278 278 278
293 291 289 288 289 289 288 287 287 287 287 287 287 286 286 286 286 286 286 286 286 286 286 286 286 286 286 286 286 286 286 286 286 286 286 286 286 286 285 285 285 284 284 283 283 282 282 282 281 281 280 280 280 280 280 279 279 279 279 279 279 279 278 278 278 278 277 277 277 276 277 276 276 276 276 276 276 276 276 276 277 277 277 277 277
294 292 290 289 288 289 289 288 287 287 287 287 287 287 287 286 286 286 286 286 286 286 286 286 286 286 286 286 286 286 286 286 286 286 286 286 286 286 285 285 284 283 283 283 282 282 281 281 280 280 280 279 279 279 279 279 278 278 278 278 277 277 277 277 276 276 276 276 275 275 275 275 275 275 275 275 275 275 275 276 276 276 277 277 277
294 293 292 290 288 288 289 289 288 287 287 287 287 287 286 286 286 286 286 286 286 286 286 286 286 286 286 286 286 286 286 286 285 285 285 285 285 285 285 284 283 283 282 282 282 281 281 281 280 280 280 279 279 279 278 278 278 278 277 277 277 276 276 276 275 275 275 275 274 274 274 274 274 274 274 274 274 274 275 275 275 276 276 276 277
293 293 292 291 289 288 288 289 289 288 288 288 287 287 286 286 286 286 286 286 286 286 286 286 286 286 286 286 286 286 286 285 285 285 285 285 285 284 284 283 282 282 282 282 282 281 281 281 280 280 279 279 279 278 278 278 277 277 277 276 276 275 275 275 275 275 275 274 274 274 273 273 273 273 274 274 274 274 275 275 275 276 276 276 277
294 293 293 292 290 289 288 289 289 289 289 288 288 287 287 286 286 286 286 286 286 286 286 286 286 286 286 286 286 285 285 285 285 285 284 284 284 284 283 282 282 281 282 282 282 282 281 281 280 279 279 278 278 278 277 277 277 277 276 276 275 275 275 275 275 274 274 274 274 273 273 273 273 273 273 274 274 274 274 275 275 275 276 276 276
294 294 293 293 291 289 288 289 289 290 290 289 289 288 287 286 286 286 286 286 286 286 286 286 286 286 286 286 285 285 285 284 284 284 284 284 283 283 282 282 281 282 282 282 282 282 281 280 280 279 279 278 278 277 277 277 276 276 275 275 274 274 274 274 274 274 274 273 273 273 272 272 272 273 273 273 273 273 273 274 274 274 274 274 274
295 294 293 292 290 288 288 288 288 289 290 289 289 289 288 287 287 287 287 287 287 286 286 286 286 286 286 286 285 285 284 284 284 284 284 283 283 282 282 282 282 282 282 282 282 281 281 280 280 279 279 278 278 277 277 276 275 275 274 274 274 273 273 273 273 273 273 273 273 272 272 271 271 272 272 271 271 272 272 273 273 273 273 273 273
296 295 294 292 289 288 288 288 288 289 289 289 290 290 289 288 287 287 287 287 287 287 286 286 286 286 286 286 285 285 284 284 284 284 283 283 282 282 281 281 281 281 281 281 281 281 281 280 279 279 278 278 277 277 276 275 275 274 274 273 273 273 272 272 272 272 272 272 272 271 271 271 270 270 270 270 270 271 271 272 272 272 272 273 273
298 295 294 293 290 288 287 287 288 288 289 289 290 289 288 288 288 288 288 287 287 287 287 286 286 286 286 286 285 285 284 284 284 283 283 282 282 281 281 281 281 281 281 281 281 281 280 280 279 279 278 277 277 276 276 275 274 274 274 273 272 273 272 272 272 272 271 271 271 270 270 270 270 270 269 269 270 270 270 270 270 271 271 272 272
299 296 295 293 290 288 288 288 288 289 289 289 289 289 289 290 290 290 288 288 287 287 287 286 286 286 286 286 285 285 284 284 283 283 282 282 281 281 280 280 280 281 281 281 280 280 280 279 279 278 278 277 276 276 275 274 274 274 273 272 272 273 272 272 272 271 270 270 270 270 270 269 269 269 269 269 269 269 269 269 270 270 270 271 271
297 297 294 289 288 288 288 289 289 289 290 290 289 289 290 291 291 290 289 288 288 287 287 287 286 286 286 286 285 285 284 284 283 282 282 281 281 280 280 280 280 281 280 280 280 280 279 279 278 278 277 276 276 275 275 274 273 273 273 272 272 272 271 271 270 270 269 269 269 269 269 269 269 269 268 268 269 269 269 269 270 270 270 271 271
299 297 291 286 286 288 288 289 290 290 290 289 289 289 289 289 289 289 288 288 288 287 287 287 286 286 286 285 285 284 284 283 282 282 281 281 281 280 280 280 280 280 280 280 279 279 279 278 278 277 276 276 275 275 274 273 273 273 272 271 271 271 270 270 269 269 269 269 269 269 269 269 269 269 269 269 269 270 270 270 271 271 271 271 271
297 294 291 289 290 291 291 291 291 290 290 290 290 289 289 288 288 288 288 288 288 287 287 287 286 286 285 285 285 284 283 283 282 281 281 281 280 279 279 280 280 280 279 279 279 279 278 277 277 276 276 275 275 274 273 273 273 272 271 270 270 269 269 269 269 268 268 268 269 269 269 269 269 269 269 270 270 271 271 271 272 272 272 272 272
291 291 292 293 293 293 292 292 291 291 290 290 290 289 288 288 288 287 287 287 287 286 287 286 286 286 285 285 284 284 283 282 281 281 281 280 280 279 280 280 280 279 279 279 278 278 277 277 276 275 275 275 274 273 273 272 272 272 271 269 269 269 269 269 269 269 269 269 269 269 269 269 269 269 270 271 271 272 273 273 273 273 273 274 274
290 292 293 293 293 292 292 292 291 291 291 291 290 289 289 288 288 287 287 286 286 286 286 286 286 286 285 284 284 283 282 281 281 281 281 280 279 279 279 279 279 279 278 278 277 277 277 276 275 275 274 274 274 273 272 272 272 272 271 269 268 269 269 269 269 269 269 269 269 269 269 270 270 270 271 272 273 273 274 274 274 274 274 274 274
291 292 292 292 292 291 291 291 291 291 291 290 290 290 289 289 289 288 287 286 286 287 286 286 286 285 285 284 283 282 281 281 281 281 280 279 279 279 279 278 278 277 277 277 277 276 276 275 275 274 274 273 273 273 272 272 272 272 270 269 269 269 269 269 269 269 269 269 269 270 270 271 271 271 272 273 273 274 274 274 275 275 275 275 275
291 292 291 290 290 290 290 290 290 290 290 289 289 289 289 289 288 287 287 287 287 288 287 286 285 284 284 283 281 281 281 281 280 280 279 279 279 278 278 277 277 276 276 276 276 275 275 275 274 274 273 273 273 272 272 271 272 271 269 269 269 269 269 269 269 269 270 270 271 271 271 271 272 272 273 273 274 274 275 275 275 275 275 275 275
290 291 290 289 289 290 290 290 290 290 289 289 289 289 288 288 288 287 287 288 288 287 286 285 285 283 282 282 281 280 281 280 280 279 278 278 278 277 277 276 276 275 275 275 275 274 274 274 274 273 273 272 272 272 271 271 271 270 268 269 270 269 269 270 270 271 271 271 271 272 271 271 272 272 273 274 274 275 275 275 275 275 275 276 276
288 289 288 288 288 288 289 289 289 289 289 289 289 289 288 288 287 287 288 288 287 287 286 285 284 282 281 281 280 280 280 279 279 278 278 277 276 276 275 275 275 275 274 274 274 274 274 274 273 272 272 272 271 271 270 271 271 269 268 269 270 270 271 271 272 272 272 272 272 272 272 272 272 273 274 274 275 275 275 275 275 276 276 276 276
286 287 288 288 288 288 289 289 289 289 289 289 288 288 287 287 287 288 288 287 286 286 285 283 282 281 281 280 280 279 279 278 278 277 276 276 275 275 275 274 274 274 274 273 273 273 273 273 273 272 271 271 271 270 270 270 270 268 268 270 270 271 272 272 272 272 272 272 272 272 272 272 273 274 274 275 275 275 275 275 275 275 275 276 276
286 287 288 287 288 288 289 289 289 288 289 288 288 287 287 286 287 287 286 286 285 284 283 282 281 280 280 279 279 278 278 277 277 276 275 275 275 274 274 274 273 273 273 273 273 272 272 272 272 272 271 271 270 269 269 268 268 268 269 270 270 271 272 272 272 272 272 272 272 272 273 273 274 275 275 275 275 274 274 274 274 274 275 275 274
286 286 287 287 288 288 288 288 288 288 288 288 287 287 286 287 287 286 286 285 284 283 282 281 280 280 279 279 278 277 277 276 276 275 275 274 274 274 273 273 273 273 272 272 272 271 271 271 271 271 271 270 268 267 267 267 267 268 269 270 270 271 272 272 272 272 272 272 273 273 274 274 274 274 273 273 272 272 272 272 273 273 273 272 272
286 285 286 286 287 287 287 287 288 287 287 287 287 286 286 287 287 286 285 284 283 282 282 281 280 279 278 278 277 277 276 276 275 275 274 274 274 273 273 273 272 272 271 271 271 270 270 270 269 270 269 267 266 266 267 267 268 268 269 270 270 271 271 272 272 272 272 272 273 273 273 273 272 272 271 270 270 270 269 269 270 270 269 269 269
286 287 286 285 285 284 285 285 286 287 287 286 286 286 286 286 285 285 284 283 282 282 281 280 279 279 278 277 277 276 276 275 275 274 274 273 273 273 272 272 272 271 270 270 270 270 269 268 268 267 266 265 266 266 267 268 268 269 270 271 271 271 271 272 272 272 272 272 272 272 271 270 270 269 268 268 267 267 266 267 267 267 267 267 268
287 287 286 284 283 284 284 285 286 287 287 285 285 285 284 284 284 284 283 282 281 281 280 279 279 278 277 277 276 275 275 275 274 274 273 273 272 272 272 271 271 270 270 270 269 268 268 267 266 266 266 266 267 267 268 269 270 270 271 271 271 271 272 272 272 272 272 271 270 269 268 268 267 266 265 265 265 264 265 265 266 266 266 267 267
287 286 285 284 284 284 284 284 286 287 286 284 284 284 283 283 283 283 282 281 280 280 279 278 278 277 276 276 275 275 274 274 273 273 272 272 271 271 271 271 270 270 270 269 268 267 267 267 267 266 267 267 268 268 269 270 270 271 271 271 271 272 272 272 271 271 270 269 267 266 266 265 264 263 263 263 263 264 264 264 265 265 265 265 265
286 285 284 284 284 284 284 284 286 285 284 283 284 283 282 283 282 281 281 280 280 278 277 277 276 276 275 275 275 274 273 273 272 272 271 271 271 270 270 270 270 269 269 268 267 267 267 268 268 268 268 268 268 269 270 270 270 270 271 271 272 272 271 270 270 269 268 266 265 264 263 262 262 262 262 263 263 263 263 263 264 264 264 264 264
285 284 283 283 284 284 283 284 285 284 283 283 282 282 282 282 280 279 279 279 278 277 277 276 276 275 275 275 274 273 272 271 271 270 270 270 270 269 269 269 268 267 267 266 266 267 267 268 268 269 269 268 269 269 269 269 270 270 271 271 271 270 269 269 268 267 265 264 263 262 261 261 261 261 262 262 263 263 263 263 263 263 263 264 264
Wind_Speed
6 9 10 10 10 11 12 13 15 17 18 18 18 19 20 20 22 23 24 23 23 22 22 22 22 22 23 24 25 26 24 22 22 21 21 21 19 18 18 18 17 16 16 16 17 17 18 17 16 16 14 12 12 13 12 10 9 8 8 8 8 8 10 10 11 10 10 12 14 15 14 12 11 11 9 7 8 12 14 16 15 13 14 15 15
6 9 11 11 11 12 12 13 15 17 19 20 20 20 20 20 21 21 21 20 20 20 20 22 23 23 25 27 27 27 26 25 25 25 23 22 21 20 20 19 18 18 18 17 17 17 17 18 18 18 17 16 15 14 14 13 12 11 10 9 9 10 11 12 12 10 10 12 12 11 11 11 12 9 5 7 13 17 16 13 12 13 17 17 15
4 7 10 11 11 12 13 14 15 17 18 20 20 20 21 21 22 22 21 21 21 21 21 23 25 25 26 27 27 27 28 27 27 27 24 24 24 23 23 22 21 21 21 20 20 19 19 19 19 18 18 17 16 16 16 16 16 15 14 12 11 11 11 12 13 12 12 12 7 4 4 7 8 5 8 19 19 14 11 12 14 15 16 17 18
2 4 8 10 10 11 12 13 13 15 17 19 20 20 21 22 22 23 23 23 23 23 23 25 26 26 27 27 27 29 29 27 26 27 26 26 26 25 25 24 23 23 22 21 21 21 20 20 19 19 19 18 18 18 19 19 19 18 17 15 13 13 13 14 14 13 14 12 5 3 2 3 3 5 16 21 11 10 15 16 13 13 16 19 21
1 2 4 7 9 9 10 11 12 15 16 17 18 19 20 21 22 23 23 24 25 25 25 25 26 27 28 28 28 28 28 26 27 28 27 27 27 27 26 24 23 24 23 23 23 22 22 22 21 21 21 21 21 21 21 21 20 19 19 17 16 15 14 14 14 13 15 15 9 3 2 2 2 8 14 8 5 16 17 9 9 16 19 20 21
1 1 2 4 6 7 9 10 12 14 15 16 17 18 19 19 20 21 22 23 23 23 23 23 24 25 26 27 27 29 30 28 29 30 29 30 30 29 28 27 27 27 27 27 27 26 26 26 25 25 26 25 25 24 24 23 22 22 20 19 19 17 14 16 16 14 14 16 14 9 4 2 3 8 8 4 11 14 5 6 15 18 18 21 26
1 1 2 4 5 6 8 10 11 13 13 15 17 18 19 19 19 19 20 20 20 20 20 20 22 23 24 27 29 32 33 30 29 31 32 32 31 30 30 30 29 29 29 29 29 28 28 28 28 28 28 28 27 27 27 26 25 24 23 22 22 21 19 20 19 16 15 16 15 11 8 7 6 6 4 4 10 7 5 14 17 14 20 26 25
1 1 2 3 4 5 7 8 10 12 13 16 18 19 19 20 20 20 20 21 21 21 20 20 22 25 27 31 33 34 34 32 30 31 31 30 31 31 30 30 29 29 28 28 28 27 27 27 27 27 27 27 27 27 27 25 25 24 24 24 24 24 23 22 21 19 18 17 16 14 13 12 10 8 5 5 5 5 12 16 16 22 27 21 18
2 2 2 3 4 5 6 8 10 12 14 17 19 20 20 21 21 22 22 23 23 23 23 23 24 26 29 32 34 34 33 32 30 30 29 29 29 29 29 28 28 27 27 26 26 25 25 25 25 25 25 25 24 24 23 22 22 22 22 22 22 22 22 21 20 20 18 17 16 16 15 14 12 9 8 9 5 4 7 9 18 30 25 18 22
3 3 3 3 4 5 7 9 11 13 15 18 20 21 21 22 22 23 24 24 24 23 23 24 25 26 28 30 32 32 31 30 29 28 27 27 28 28 27 27 26 25 25 24 24 24 23 23 23 23 23 22 22 21 21 20 20 19 19 19 18 19 18 18 18 17 16 15 15 15 15 14 9 7 8 10 6 3 5 7 16 21 17 23 32
3 4 4 5 5 7 8 10 12 13 16 18 21 21 22 22 23 24 24 24 24 23 23 24 24 25 26 27 29 30 28 27 26 26 25 25 26 26 25 25 25 24 23 23 22 22 21 21 21 21 20 20 20 20 19 19 18 17 16 16 16 16 15 15 14 14 13 13 13 14 14 12 8 6 8 8 6 4 6 7 13 19 17 23 31
4 3 5 6 7 8 9 11 12 14 16 18 20 21 22 22 22 24 24 23 23 23 23 23 23 24 25 25 26 26 24 24 24 25 23 23 24 24 24 23 23 22 21 21 21 19 19 19 18 18 18 19 18 18 17 17 16 15 15 15 15 15 14 14 13 13 13 12 12 12 12 11 10 9 9 9 8 8 8 7 11 17 15 18 30
5 4 4 7 9 9 10 11 12 14 16 18 19 21 21 21 22 23 24 23 22 22 22 22 23 23 23 23 23 22 22 22 22 23 22 21 21 21 21 21 20 20 19 20 19 17 17 17 17 17 17 17 17 16 16 15 15 15 16 15 15 15 14 14 14 13 13 12 12 11 10 10 10 10 10 11 11 11 10 9 11 13 11 17 29
5 5 4 7 10 11 11 12 13 14 16 17 19 20 21 21 21 23 23 22 21 21 21 22 22 21 20 20 20 20 20 21 21 20 20 19 18 19 19 19 19 19 18 18 17 15 15 15 15 15 16 16 16 16 16 16 16 16 16 16 16 16 15 14 14 13 13 12 12 12 12 12 11 11 11 12 13 13 11 10 12 12 12 16 20
5 5 6 9 12 12 12 13 13 14 15 17 19 19 20 21 21 22 23 21 20 20 20 21 21 20 19 19 18 18 19 19 19 18 18 17 17 17 18 18 17 17 16 15 14 13 13 13 13 14 14 14 15 15 15 15 16 16 16 16 16 16 15 16 15 15 15 14 13 14 14 14 13 13 13 13 13 13 12 12 12 9 8 10 12
6 5 7 10 13 13 14 14 14 15 16 17 19 19 20 21 21 21 21 20 19 19 19 20 20 19 18 17 17 17 17 17 18 17 16 16 15 15 16 16 15 14 13 12 12 11 12 12 12 13 14 14 15 15 16 16 17 17 17 17 17 17 16 16 16 15 15 16 15 15 16 15 15 15 15 15 15 14 14 14 12 8 7 8 8
7 7 7 10 13 15 16 16 16 16 17 18 19 19 20 20 21 21 21 20 19 18 19 19 18 18 17 16 16 16 15 15 16 15 15 14 14 14 14 13 12 12 11 11 11 12 12 13 14 15 16 17 17 18 19 19 20 20 20 20 20 20 20 19 19 18 18 18 17 17 17 17 17 17 16 16 16 16 15 14 13 11 10 8 6
7 7 8 11 15 16 17 17 17 17 18 18 19 19 20 20 20 20 21 20 19 18 18 17 16 16 16 15 15 14 14 14 14 14 12 12 12 12 12 11 11 11 11 11 12 13 14 15 16 17 18 18 19 19 20 20 21 21 21 21 21 21 22 21 21 22 22 22 22 22 21 21 20 20 19 18 17 16 16 16 15 14 12 11 9
8 7 7 10 15 17 18 18 17 18 18 19 19 20 20 20 19 20 20 19 19 18 17 16 15 15 15 14 14 13 13 13 12 12 10 10 11 11 10 10 10 10 10 11 12 13 14 15 15 16 17 17 18 18 19 19 20 20 20 21 21 21 22 22 22 23 23 23 24 24 24 24 24 24 23 22 20 18 17 17 17 17 15 15 15
9 7 6 10 16 18 18 19 19 19 19 19 20 20 21 21 20 20 20 19 18 17 17 16 14 14 14 14 13 12 11 11 11 10 9 9 9 8 7 7 7 7 8 9 10 11 13 14 15 16 16 17 17 18 18 19 19 20 20 20 21 21 22 23 23 23 23 24 25 25 26 25 26 26 26 26 25 23 21 19 17 17 17 16 17
7 6 7 11 15 17 18 19 20 20 20 20 21 21 21 21 21 21 20 19 19 17 16 15 14 14 13 12 12 10 10 9 9 8 7 7 6 5 5 5 5 6 7 8 9 11 12 13 14 16 17 17 18 18 19 19 20 20 20 20 21 22 22 23 24 24 24 25 25 26 27 26 26 26 27 27 27 27 26 24 20 17 17 15 15
6 7 9 12 15 17 19 20 21 21 22 22 21 21 21 22 21 21 20 20 19 17 16 15 15 13 12 11 11 10 9 8 7 7 6 6 5 4 4 4 5 6 7 8 10 11 12 14 15 16 17 17 18 18 19 19 19 20 20 20 21 22 23 24 24 25 25 25 26 26 27 27 26 27 28 27 28 28 27 27 25 19 18 17 14
6 7 10 13 16 19 21 22 23 24 24 23 23 22 23 23 22 22 21 20 18 17 16 15 14 13 12 11 10 9 9 7 7 6 6 6 5 4 4 5 6 7 8 9 11 12 13 14 15 16 17 17 18 18 18 18 18 19 19 20 20 21 22 23 23 24 25 24 25 26 27 27 26 27 28 27 27 27 24 26 28 23 21 21 18
7 8 10 13 17 19 20 21 23 24 25 25 24 24 24 24 23 23 22 21 19 18 17 16 14 14 12 11 10 9 8 7 7 6 5 5 4 4 5 6 7 8 9 10 11 13 14 15 16 17 17 18 18 19 18 18 18 18 19 19 20 20 21 21 22 23 23 23 23 25 26 26 26 26 28 27 25 24 22 22 25 24 21 23 22
7 8 8 11 15 17 19 21 23 25 26 26 26 25 25 25 25 24 23 22 20 19 18 16 15 14 13 11 10 10 9 8 7 5 3 2 2 3 5 6 7 8 10 11 12 14 15 16 17 18 19 19 19 20 19 19 19 19 19 20 20 21 21 21 21 21 21 21 22 23 24 24 25 25 25 24 23 23 23 22 22 23 21 22 23
9 8 8 10 13 16 19 22 23 25 26 27 27 27 27 26 26 25 24 23 21 20 19 18 16 15 14 13 12 12 10 8 6 5 3 2 1 3 5 7 8 9 11 12 13 15 16 17 18 19 20 20 20 20 20 20 20 20 20 21 21 21 21 21 22 21 21 21 21 22 23 22 22 22 22 22 22 22 22 22 21 21 21 22 23
8 8 8 9 11 14 18 20 22 24 25 26 27 28 28 27 27 26 25 23 22 21 20 19 18 16 15 15 15 13 11 9 8 7 6 5 4 4 5 7 8 9 10 12 14 15 17 18 19 19 20 20 20 20 20 20 20 20 21 21 21 22 22 22 23 23 22 21 21 21 22 21 20 20 20 20 20 19 18 19 19 19 20 21 22
6 7 8 9 10 12 16 19 21 23 24 26 28 29 29 29 28 27 25 24 23 22 22 20 19 18 18 18 16 14 13 12 11 10 9 8 7 7 7 7 9 10 11 13 15 16 18 19 20 20 20 21 21 20 20 20 20 21 21 21 22 22 23 23 23 23 23 22 22 22 21 21 19 18 18 17 17 18 19 21 21 19 20 22 22
8 8 9 10 9 10 15 18 20 22 25 27 29 30 30 31 31 29 28 26 24 23 23 22 22 21 21 20 18 17 16 15 14 13 12 11 10 8 8 9 10 11 12 14 16 18 19 20 21 22 22 22 21 20 20 20 20 20 20 21 22 22 23 23 23 23 23 23 23 23 22 21 19 16 16 18 19 20 21 23 23 21 21 22 23
8 9 9 8 8 11 14 17 20 24 27 28 30 32 33 34 34 33 31 28 26 25 25 24 24 24 23 22 21 20 19 18 17 16 15 14 12 10 10 11 11 12 14 15 17 18 20 21 22 23 23 23 22 21 20 20 18 18 19 20 22 22 22 23 24 24 23 22 23 23 23 23 21 19 20 22 21 20 20 21 23 23 22 22 23
8 8 8 7 8 11 14 17 22 26 28 29 31 33 33 34 34 34 32 30 28 28 27 26 27 26 25 24 24 23 22 21 20 18 17 15 13 12 12 12 12 13 14 16 18 19 21 22 23 23 24 24 23 22 20 20 18 17 17 18 20 21 21 21 22 23 23 22 22 24 24 24 24 24 24 22 20 20 20 21 22 22 22 22 23
7 7 7 7 8 11 15 19 22 25 27 29 31 30 30 31 32 33 33 31 30 30 29 28 28 28 27 27 26 26 25 24 22 20 18 16 14 13 13 13 13 14 16 17 18 20 21 22 23 24 24 24 23 22 20 19 18 17 16 16 17 18 20 20 19 20 22 22 23 24 23 23 24 23 22 21 21 23 22 22 22 22 22 21 21
7 7 7 8 10 13 17 20 22 24 26 29 29 29 29 31 32 32 32 31 31 31 30 29 29 29 29 29 28 27 26 26 24 21 19 17 15 14 13 14 14 16 17 18 19 21 22 23 24 24 25 25 24 22 20 19 18 17 16 15 16 17 18 20 20 21 23 22 22 22 21 21 21 21 22 22 22 24 23 21 21 21 20 20 20
6 6 6 8 11 14 17 19 20 22 23 24 26 27 29 30 29 29 30 31 31 31 31 30 30 31 30 29 28 28 27 27 25 22 19 17 16 15 14 15 16 17 18 19 20 21 22 23 24 24 25 25 24 22 21 20 18 18 16 14 16 18 20 23 23 22 22 20 17 16 17 18 19 19 20 21 21 22 22 21 21 21 22 23 23
5 5 6 9 12 14 15 16 17 17 17 19 21 23 25 25 25 26 27 28 30 30 31 31 31 31 30 29 28 28 28 28 25 22 20 18 16 15 15 16 17 17 18 19 21 22 23 23 24 24 25 25 24 21 20 19 18 18 16 15 17 20 21 23 21 19 19 17 15 14 16 17 18 18 19 20 21 22 22 23 26 28 30 30 29
8 9 10 12 14 14 13 12 12 13 14 16 17 18 21 22 23 23 24 25 27 29 29 30 30 30 30 29 29 29 29 28 25 22 19 18 16 15 15 16 17 18 19 20 21 23 24 24 24 25 25 25 24 21 20 19 18 17 16 16 19 20 19 19 19 17 17 17 15 15 16 16 17 18 20 22 23 23 25 28 31 32 33 34 34
11 11 11 11 11 11 10 10 10 12 13 14 14 15 17 19 20 21 22 22 24 26 27 28 28 29 29 28 29 29 29 27 24 21 19 18 16 16 16 17 18 19 20 21 22 23 24 25 25 25 26 27 25 22 20 19 18 17 16 17 18 19 17 18 19 18 18 17 16 16 16 18 19 20 22 25 26 27 28 31 33 34 35 35 35
11 11 10 10 10 10 10 11 11 11 12 11 12 13 14 16 18 20 21 21 22 24 26 26 27 27 27 28 29 29 27 25 22 20 18 17 16 16 17 18 18 20 21 21 23 24 24 25 25 25 25 26 26 23 21 19 18 16 16 16 18 19 19 20 21 19 17 17 18 19 21 23 24 25 26 28 29 29 30 31 32 34 36 37 36
10 12 12 12 12 12 12 12 12 13 13 12 12 13 13 15 16 17 19 21 22 23 24 24 25 26 26 27 27 26 25 22 20 19 17 16 16 16 17 18 18 19 21 22 23 25 25 25 24 25 25 25 25 24 21 19 18 16 15 16 17 19 20 21 20 19 20 22 24 26 27 25 25 27 29 30 30 30 31 32 32 31 32 35 37
12 13 13 12 13 14 15 16 16 16 15 14 14 14 15 15 15 17 18 19 19 20 20 21 22 23 24 25 25 24 22 21 19 18 16 16 16 16 17 18 18 19 21 22 23 24 25 25 24 24 24 23 24 24 22 19 18 16 15 15 17 19 21 22 22 24 28 31 30 29 27 25 25 28 30 31 32 31 31 33 33 30 30 35 37
14 15 15 14 16 18 19 19 19 18 17 17 17 17 17 17 17 18 19 18 18 18 19 19 20 22 23 24 24 22 21 19 18 17 16 16 16 16 17 17 18 20 21 22 23 24 25 26 25 24 24 23 23 24 22 20 18 17 15 16 17 19 21 24 27 28 30 30 28 25 25 25 26 29 30 31 32 33 35 36 34 32 34 38 39
13 14 16 17 18 19 20 21 20 20 20 20 20 20 20 20 20 20 19 19 18 18 18 19 20 22 23 23 22 21 19 18 17 16 16 16 15 16 17 17 18 20 21 22 23 23 25 27 26 25 24 23 22 22 21 20 19 18 16 16 18 19 20 23 27 28 27 27 27 26 27 28 28 29 31 33 34 36 36 35 33 34 36 38 39
15 16 19 21 20 20 22 23 22 23 23 22 22 22 22 21 22 21 20 19 19 18 19 20 21 22 23 22 21 20 18 17 16 16 15 15 15 16 17 17 18 20 21 22 23 23 25 27 27 26 24 23 22 21 20 21 21 18 17 17 18 19 20 21 24 26 28 29 29 29 30 30 31 31 33 34 35 34 33 31 32 35 37 37 37
17 20 22 23 23 23 24 25 24 25 25 24 25 25 24 24 24 22 20 20 19 19 20 21 22 22 22 22 20 19 17 16 16 16 16 16 16 16 17 17 18 19 21 22 23 23 24 26 28 28 26 24 23 22 21 21 21 18 19 19 19 20 21 22 24 26 27 29 30 31 32 33 33 32 31 31 31 31 32 33 35 36 36 34 31
18 20 21 24 26 26 26 26 26 26 27 27 27 26 26 26 25 23 22 21 20 20 21 22 23 23 22 21 19 18 17 16 16 17 17 16 17 17 17 18 18 19 19 21 22 22 23 24 26 27 27 25 22 21 21 21 20 19 20 20 20 21 22 22 24 25 27 29 31 32 33 31 29 28 28 28 29 29 30 32 32 32 31 28 26
17 18 20 23 25 25 24 25 26 27 29 29 29 28 29 29 27 24 23 22 21 22 22 23 23 22 21 20 19 18 17 18 17 18 18 17 17 17 18 18 18 18 19 20 21 21 22 23 23 25 25 23 21 21 22 22 21 21 21 21 22 23 22 22 24 26 27 29 29 28 27 26 25 26 27 27 27 27 27 27 27 27 27 26 24
19 21 22 22 22 23 24 25 27 29 30 31 31 30 31 29 26 24 23 22 22 23 24 24 24 23 22 21 20 19 19 18 18 18 18 18 18 18 18 18 17 17 18 19 20 21 21 21 22 22 21 19 20 22 23 23 22 22 23 23 23 24 24 25 26 27 27 27 26 27 27 28 30 30 28 27 27 26 24 22 22 23 24 23 22
20 21 21 20 21 23 25 27 29 30 31 31 32 31 31 29 27 25 24 24 24 25 25 25 24 23 23 22 21 20 20 19 19 19 19 18 18 18 18 18 17 16 18 19 19 20 19 19 20 20 20 22 23 22 21 20 20 22 23 23 23 24 26 26 26 26 27 27 28 31 32 32 31 29 27 26 26 24 21 19 19 20 21 22 23
19 20 21 22 24 25 26 27 29 29 29 30 32 31 31 30 29 28 27 26 26 26 26 25 24 24 24 22 21 21 20 20 19 19 19 19 18 17 18 18 16 16 17 18 19 19 19 19 20 21 22 24 24 21 18 18 19 20 21 22 22 24 24 25 24 25 25 26 27 29 29 27 25 24 22 22 22 20 20 20 20 20 21 22 23
20 18 19 22 24 26 27 28 28 27 27 28 30 31 31 31 31 30 29 28 28 27 26 26 26 25 24 23 21 21 20 20 19 19 19 18 17 17 17 17 17 16 16 16 18 19 20 20 22 23 21 20 21 20 18 18 19 19 20 20 21 21 21 22 23 22 22 22 23 23 23 22 21 20 18 18 19 20 21 22 23 24 24 23 21
20 18 19 22 24 25 26 28 28 27 26 27 29 30 32 33 33 31 30 29 29 28 27 27 27 25 23 22 21 20 20 19 19 18 18 18 18 17 16 15 15 16 16 15 16 18 19 18 20 21 19 18 18 18 17 17 18 18 18 18 18 18 19 19 19 18 19 20 20 20 21 22 21 20 18 18 19 19 20 22 25 28 31 28 24
Wind_Direction
4 23 32 35 43 56 68 77 83 87 90 95 100 102 103 106 109 108 109 113 114 113 113 112 109 107 104 98 92 88 87 87 84 80 78 76 74 72 69 67 64 61 58 55 55 56 59 62 63 63 61 59 60 63 63 60 53 46 46 43 39 38 35 27 13 3 357 345 333 327 324 323 324 321 324 346 354 345 339 337 339 344 347 348 346
15 29 31 36 46 57 68 77 83 86 87 92 96 98 102 106 108 107 109 112 111 111 111 107 105 105 102 98 95 91 89 88 86 83 83 82 79 76 74 72 70 68 65 62 62 61 61 61 61 61 60 60 64 64 60 57 53 48 48 49 50 51 52 41 26 26 17 354 336 325 329 336 337 329 329 351 341 333 334 340 344 345 345 348 353
13 21 24 33 44 57 68 73 79 84 88 93 96 98 102 104 105 106 107 107 106 107 108 106 105 105 103 100 98 94 90 89 89 88 86 85 83 81 79 77 76 74 72 70 68 66 64 63 61 60 59 56 57 56 53 52 49 47 46 50 57 60 61 48 35 39 26 7 351 329 339 338 340 18 350 331 329 335 347 346 339 341 346 348 347
17 15 19 32 45 55 62 67 76 85 91 94 97 100 102 104 105 106 107 106 107 107 106 107 107 106 105 102 100 97 94 94 93 90 87 86 84 82 80 79 78 76 74 72 70 69 66 65 64 62 60 57 54 53 52 49 47 45 43 43 47 52 56 48 42 45 38 31 21 314 323 336 349 9 335 327 339 353 340 337 339 345 344 340 340
33 15 13 28 43 52 59 67 77 85 90 93 97 101 104 108 110 111 112 110 110 110 110 111 111 110 108 106 103 99 95 93 89 85 84 84 82 81 80 79 79 78 76 75 73 73 71 70 69 67 65 62 59 58 57 54 51 48 45 43 45 48 53 53 51 52 47 47 49 26 339 345 337 333 329 324 340 336 336 351 351 340 338 337 336
103 48 23 37 51 61 69 75 81 86 91 95 101 106 110 114 117 118 117 116 115 115 116 117 115 115 115 111 105 99 91 85 84 85 85 85 84 84 83 82 81 80 79 78 77 76 75 74 73 72 71 68 66 65 63 60 56 53 50 49 49 48 48 52 51 48 47 47 51 60 57 17 324 327 334 317 321 332 358 356 335 334 335 331 329
105 77 60 66 68 72 74 78 85 89 95 102 107 111 114 117 119 121 121 122 123 123 125 125 122 120 116 109 104 100 96 91 91 92 91 91 90 89 87 84 83 82 80 79 78 77 76 76 75 74 73 71 70 68 66 63 61 59 58 56 56 53 52 53 48 41 42 41 41 48 42 26 5 346 351 325 324 331 328 326 331 334 329 328 331
165 131 79 84 82 83 85 88 93 98 104 110 112 113 116 117 118 119 120 122 125 127 129 128 123 117 111 106 103 102 102 101 99 97 96 96 94 90 88 86 84 83 81 80 79 78 77 76 75 74 74 72 70 69 67 66 65 63 61 60 59 57 56 56 52 47 44 41 38 39 34 29 27 23 22 359 331 304 318 326 327 326 328 334 340
187 182 129 104 101 100 101 102 105 110 112 113 114 116 118 119 120 120 120 120 123 125 124 120 116 112 109 107 105 105 105 104 103 101 99 98 95 92 90 88 86 83 82 80 79 78 77 76 75 74 73 72 71 70 68 66 64 62 59 58 58 57 57 56 55 51 47 43 40 40 37 36 36 33 18 4 345 288 317 324 320 326 332 334 332
189 180 158 133 124 117 115 116 116 116 116 116 117 119 120 121 122 120 118 119 119 119 117 114 113 111 110 110 109 109 109 108 107 103 101 99 96 94 91 89 86 84 82 79 78 76 75 75 73 72 72 71 70 69 67 64 62 60 58 56 56 56 54 53 53 52 48 44 40 38 36 34 30 19 5 357 348 295 301 303 311 322 324 321 326
187 180 165 152 140 133 131 127 124 122 121 121 120 120 121 121 120 117 115 116 116 116 114 113 113 111 111 112 112 114 114 112 108 103 101 99 96 94 91 89 86 84 82 79 76 74 73 71 70 69 68 66 64 61 59 57 55 54 53 51 50 50 48 46 45 44 41 38 35 34 32 31 27 4 349 343 333 300 299 297 301 310 307 307 319
186 184 172 163 153 146 143 136 131 131 128 125 124 123 122 122 121 118 116 117 117 117 116 115 114 113 113 114 114 115 115 111 107 103 101 99 97 96 93 90 86 83 80 76 72 69 67 66 64 63 60 56 54 51 49 47 44 41 39 39 37 36 35 31 28 26 24 21 20 21 18 20 18 2 350 339 325 308 302 293 295 310 307 298 311
188 188 180 175 168 158 152 145 141 139 134 130 128 127 127 126 125 123 120 121 121 120 119 118 116 115 116 116 115 114 113 110 107 104 102 99 98 96 91 87 83 77 73 69 64 59 58 56 53 51 49 46 43 40 39 35 33 30 28 27 26 25 23 20 18 15 11 8 4 2 359 360 359 351 345 340 334 324 311 298 297 306 299 297 309
191 190 185 185 180 170 161 155 150 145 139 135 133 132 132 131 130 127 124 125 125 123 122 120 117 116 117 116 115 115 112 109 107 104 102 99 95 91 87 83 79 74 69 64 59 53 50 46 42 40 37 34 31 28 26 23 20 19 17 15 14 15 13 9 9 7 4 1 355 350 348 349 347 342 337 336 337 332 320 311 311 305 289 289 302
194 190 192 195 186 175 169 164 159 152 145 141 139 139 138 136 135 132 130 129 129 126 124 122 119 117 117 116 115 114 112 109 106 103 101 97 93 90 87 83 79 75 69 64 57 50 45 40 35 31 28 25 21 18 15 13 12 10 9 8 4 4 3 359 358 358 355 354 353 348 346 346 344 341 338 335 335 331 323 318 317 313 301 294 300
194 194 199 197 187 179 176 173 167 159 153 149 146 145 144 142 140 137 134 134 132 130 127 123 122 120 119 117 115 113 111 108 106 104 101 98 94 90 87 84 80 75 69 61 52 43 36 30 25 22 19 15 11 9 7 5 4 3 2 2 359 358 358 356 354 354 351 349 349 346 343 344 342 340 338 336 334 331 327 322 315 305 301 306 310
195 199 196 190 184 183 184 179 173 165 160 157 153 152 151 149 147 143 139 138 136 134 131 128 128 127 124 121 117 113 110 106 105 103 100 97 92 88 85 82 79 72 63 52 41 32 24 19 15 12 10 7 4 2 360 359 358 357 357 357 355 354 354 354 353 353 351 348 348 346 343 343 341 339 337 336 334 331 329 326 317 301 289 290 299
198 200 192 186 184 186 187 183 178 172 166 163 159 157 156 155 154 150 146 143 141 138 136 135 134 131 126 122 117 113 109 105 102 99 95 92 86 83 79 73 66 54 43 34 25 19 14 9 6 4 2 359 357 355 353 353 351 351 351 351 350 348 348 349 348 348 348 347 346 345 344 343 342 339 337 335 333 330 327 324 318 308 292 278 275
202 196 184 184 185 188 187 183 180 177 172 168 165 163 160 159 157 153 150 146 144 143 141 139 137 131 125 121 116 111 107 102 97 93 89 83 76 71 64 55 48 37 27 19 11 7 4 360 358 356 353 351 349 347 345 344 344 343 343 343 343 342 341 342 342 343 343 342 341 340 340 340 339 337 336 334 332 329 326 320 315 310 299 284 276
199 182 176 185 189 190 186 184 184 181 178 174 171 169 166 163 160 157 153 150 148 148 146 142 139 134 127 121 115 111 106 99 95 91 85 80 73 67 58 47 37 24 12 4 358 355 353 351 350 348 346 344 342 341 339 339 340 339 340 339 339 339 338 338 338 338 339 338 337 336 335 336 335 333 331 331 329 328 326 320 313 307 299 291 283
185 168 179 187 188 188 185 187 188 184 182 180 177 175 171 169 167 164 161 157 154 153 151 148 142 137 132 125 121 116 110 105 103 100 94 88 81 69 56 37 20 6 357 351 347 346 345 345 344 344 343 343 341 341 340 340 340 340 340 340 339 338 338 337 336 336 337 337 335 333 332 332 332 329 327 326 324 324 324 320 315 307 297 292 285
173 172 182 184 183 183 185 188 189 187 186 184 182 180 177 176 175 173 170 167 163 161 159 155 148 143 139 134 131 127 123 120 117 112 103 95 85 71 56 32 12 360 351 346 344 344 344 343 344 344 343 343 342 342 341 340 340 339 338 338 338 338 337 336 335 335 335 335 333 331 330 329 328 325 323 322 320 319 320 317 314 310 300 295 288
174 178 182 183 182 185 187 189 189 190 189 188 186 185 184 183 181 181 179 175 172 169 166 162 156 152 150 147 146 143 138 134 129 125 117 106 92 75 56 28 12 1 352 348 346 345 345 344 343 343 342 342 341 341 340 340 338 337 336 336 337 335 335 334 333 333 333 333 330 328 326 325 324 321 319 318 317 315 315 312 309 307 302 298 293
181 182 182 183 184 188 190 190 191 192 192 192 191 190 189 189 188 187 185 181 177 175 172 170 166 163 163 163 162 160 158 157 153 145 132 113 85 57 37 14 4 355 348 346 345 344 344 344 343 342 342 342 341 341 341 340 339 338 336 335 335 334 333 332 330 330 329 328 326 323 321 321 319 317 315 315 314 312 310 306 304 302 299 296 295
183 181 178 182 186 190 193 194 195 195 195 196 195 196 195 194 193 192 189 185 182 181 179 178 177 176 176 178 180 182 181 180 176 167 154 124 60 24 10 359 351 346 345 346 346 345 345 344 343 342 341 341 341 340 341 340 339 338 336 334 334 332 331 329 327 326 324 322 320 317 317 318 316 314 312 312 311 309 307 302 298 297 295 293 292
188 183 184 188 192 196 197 198 198 197 197 198 198 199 199 199 199 197 194 189 186 186 185 185 187 188 188 192 196 197 196 197 199 202 210 233 304 333 341 342 340 340 342 344 344 343 342 341 340 339 338 338 337 337 338 338 337 336 334 333 332 330 328 326 325 323 322 319 318 316 315 316 314 310 308 309 308 306 304 299 295 294 293 291 289
194 187 190 195 198 200 199 199 199 199 199 200 201 203 203 203 203 202 200 196 192 190 190 192 194 197 201 206 207 207 209 212 218 225 236 251 271 295 314 325 329 333 336 339 340 339 337 336 335 335 334 334 334 335 337 337 335 334 334 332 330 328 325 323 323 323 322 320 317 317 316 315 314 309 306 306 305 304 301 297 296 295 294 292 290
199 195 199 201 202 201 198 198 199 199 201 203 205 207 208 207 207 206 204 202 198 196 195 197 201 205 210 214 215 216 218 223 229 234 243 251 262 278 296 308 317 324 329 334 336 335 334 333 333 332 332 331 332 335 337 336 336 335 334 330 327 325 324 322 322 321 321 320 318 318 317 315 313 308 303 300 300 301 301 299 297 296 294 293 291
205 208 209 208 206 198 194 197 198 198 203 206 207 209 210 211 211 210 209 207 205 203 201 203 207 212 216 219 219 221 223 228 233 237 243 251 257 270 286 299 309 318 326 330 331 331 331 331 330 330 330 330 331 335 337 337 337 335 332 328 325 324 323 321 320 319 319 319 319 318 316 314 309 300 295 295 295 296 296 294 295 296 295 294 293
211 217 217 212 208 200 195 197 199 202 206 207 208 210 211 212 212 212 213 212 210 209 209 210 214 218 221 222 222 224 226 230 234 238 244 250 256 267 282 294 305 315 323 326 327 328 328 327 328 327 327 327 329 334 337 337 337 334 328 325 323 322 321 319 317 317 317 317 318 316 313 311 306 300 300 301 298 294 291 289 290 293 293 293 293
218 221 218 214 211 203 199 201 205 208 209 209 211 212 213 213 213 213 215 215 214 214 215 216 219 222 223 225 225 225 228 231 234 238 243 248 256 268 279 292 305 313 318 321 323 324 324 324 324 324 324 325 327 333 336 335 334 332 327 323 318 316 315 313 312 313 313 312 312 311 310 310 307 306 308 306 299 294 292 290 290 289 288 288 289
220 218 214 212 210 205 205 208 211 213 213 214 214 214 213 214 214 216 218 216 216 218 219 220 223 224 226 227 227 226 228 231 234 238 242 248 257 267 280 293 304 310 313 318 320 320 321 321 321 322 322 322 326 331 333 332 331 330 327 320 311 308 308 306 304 304 305 307 308 308 308 309 308 308 307 303 298 296 296 293 291 290 287 284 283
222 217 212 212 213 212 213 215 216 216 218 219 217 215 217 219 220 221 220 217 218 220 221 223 225 227 228 228 228 227 228 230 233 236 241 248 258 269 282 293 300 306 310 315 317 317 318 318 318 319 319 319 324 329 331 331 330 327 325 318 307 300 298 297 297 298 300 303 305 305 304 304 305 306 305 302 299 298 296 294 291 290 287 284 283
228 222 216 215 215 215 218 219 221 222 224 224 222 222 225 225 224 223 220 219 220 221 223 226 227 229 229 229 229 228 228 230 232 235 241 249 259 270 282 291 299 305 308 311 314 314 314 315 315 316 316 317 322 328 331 331 328 325 324 316 301 294 293 294 296 299 301 300 298 296 296 296 299 302 301 299 297 296 295 292 290 287 286 284 282
228 225 220 217 212 212 216 218 221 224 223 223 224 225 227 225 224 224 222 221 223 223 226 228 228 230 230 230 230 228 227 229 230 234 241 250 261 272 282 291 298 303 307 310 312 312 312 313 314 315 315 316 322 329 331 329 327 326 323 309 296 294 295 297 298 297 297 293 287 286 288 290 292 294 294 294 293 293 291 289 287 286 285 283 279
215 210 209 210 207 207 209 208 208 210 211 216 219 220 222 223 224 225 225 225 225 226 228 229 230 232 232 232 231 228 226 227 229 234 242 251 262 273 283 292 298 302 305 308 309 309 311 312 313 315 316 317 322 330 332 328 327 326 318 306 300 299 297 295 295 292 291 288 284 284 286 286 287 289 290 291 291 290 288 287 285 284 284 282 281
219 212 209 207 203 199 196 190 188 192 197 203 207 211 216 219 221 224 225 225 226 228 231 232 233 235 235 233 231 227 225 226 229 235 244 253 264 275 285 293 297 301 303 305 307 308 310 312 314 317 317 318 322 330 333 329 327 325 318 308 302 299 293 290 292 291 290 288 283 281 284 286 287 287 288 291 293 292 289 287 285 285 285 283 282
221 212 205 196 191 186 184 181 181 186 191 192 195 202 209 214 219 223 224 224 227 231 234 235 237 237 235 232 228 225 224 226 230 238 247 258 269 279 288 292 296 300 302 304 306 308 309 311 313 316 317 318 322 329 332 328 325 325 319 309 302 298 293 293 295 292 288 287 285 287 290 289 287 288 290 292 294 294 292 290 288 287 284 281 281
219 207 201 194 188 183 182 183 186 189 187 183 187 197 204 212 219 222 222 226 231 238 240 239 240 238 233 229 225 223 224 228 234 243 252 263 274 281 287 292 295 298 301 304 306 306 307 311 314 315 316 318 321 326 329 327 325 326 321 308 301 298 296 296 296 293 293 295 296 298 300 295 289 289 292 293 295 295 294 290 288 285 281 280 283
212 204 204 201 194 189 187 190 195 195 189 187 193 201 207 215 220 219 223 231 240 244 243 240 239 234 228 225 222 222 225 231 238 248 258 268 276 282 286 290 293 297 300 302 304 305 307 311 313 314 315 320 323 325 327 327 326 327 321 307 299 296 296 296 297 298 301 303 303 303 303 298 293 293 294 294 294 293 290 287 286 282 280 283 287
211 208 207 203 199 197 196 199 201 198 196 200 203 207 212 217 218 219 227 238 244 243 240 235 232 227 222 221 220 222 228 235 243 253 263 269 276 281 285 289 293 297 299 301 303 306 308 310 312 313 316 322 325 325 326 328 329 328 318 304 297 295 295 297 299 300 302 303 302 300 299 298 297 296 295 293 292 291 291 290 288 285 285 290 293
216 215 211 205 203 202 203 207 207 203 206 210 210 212 216 216 217 225 234 239 239 237 234 229 224 220 218 218 220 224 230 239 248 256 263 269 275 279 284 289 293 296 299 300 304 308 308 308 311 313 317 323 327 327 326 326 331 329 315 301 297 295 295 298 299 299 299 299 298 297 298 298 297 295 294 293 293 294 297 296 294 294 296 298 299
212 213 210 205 205 208 210 213 214 213 215 216 214 216 217 216 222 231 235 235 234 232 227 222 219 218 218 219 222 227 234 242 251 259 263 269 274 278 283 288 291 294 298 301 305 308 308 309 311 313 318 323 325 326 326 330 336 330 312 302 300 297 297 298 297 296 297 299 298 298 298 297 296 296 297 298 299 302 303 302 300 300 301 301 302
218 216 212 207 208 213 217 219 220 220 220 220 219 219 218 220 228 233 231 230 229 225 220 219 218 217 218 221 224 231 239 246 253 259 263 267 272 276 281 285 289 294 298 301 304 307 308 309 310 313 317 322 325 328 332 336 337 324 309 306 304 301 301 300 297 296 297 298 298 298 299 299 300 300 302 303 304 305 303 302 301 301 301 302 305
229 222 216 212 214 217 222 225 225 224 224 224 223 220 220 226 231 230 227 226 224 220 218 218 218 218 219 224 228 234 242 248 252 257 261 265 270 274 279 283 288 293 297 300 303 305 306 307 309 312 316 321 326 331 334 333 327 315 309 309 306 304 305 304 301 300 300 299 299 299 301 302 304 307 311 311 309 306 303 302 302 302 303 306 307
234 228 221 219 220 222 226 230 231 229 227 227 225 223 224 230 232 227 224 224 220 218 218 217 218 219 222 226 232 237 242 247 251 256 260 264 268 272 277 282 287 291 294 296 298 301 303 304 307 311 316 320 325 330 331 330 326 321 317 315 312 311 310 307 305 304 303 302 302 303 307 310 313 316 317 314 310 307 306 305 304 304 306 306 305
236 234 228 224 222 223 226 230 233 234 231 229 228 226 226 230 230 225 222 221 218 218 218 217 218 220 224 228 233 237 241 245 250 254 258 262 266 270 275 279 284 288 291 293 295 297 299 302 306 311 314 316 319 323 324 326 327 324 320 319 317 315 313 311 310 309 309 310 309 309 311 312 313 314 313 311 310 310 310 309 307 307 307 306 305
241 237 230 225 224 227 228 230 234 237 235 231 230 228 226 226 226 223 220 217 217 218 218 219 220 222 226 230 234 237 241 245 248 253 256 259 263 268 272 276 281 285 287 289 292 294 296 300 304 308 310 310 312 315 317 318 320 319 318 318 316 315 316 316 316 316 316 315 313 312 312 313 314 316 317 317 317 317 315 313 311 311 311 309 308
244 240 233 228 229 231 232 234 239 241 239 235 233 230 226 224 224 222 218 215 216 217 217 218 220 222 226 230 234 238 242 244 247 251 255 258 262 266 270 274 278 280 284 289 292 294 298 303 303 303 304 303 303 306 311 312 312 313 314 314 313 315 318 319 319 320 319 316 315 316 318 320 322 323 323 321 320 319 318 316 315 315 314 312 312
246 244 237 233 234 236 237 240 244 245 241 238 235 230 225 223 222 220 216 215 215 214 214 217 220 223 226 230 234 239 243 245 248 252 255 259 262 265 269 276 281 283 286 288 288 287 291 296 296 296 297 295 293 299 306 309 310 312 313 312 313 316 319 320 323 324 320 317 321 324 325 326 326 323 320 319 318 319 318 317 317 319 319 317 314
243 238 235 235 237 237 238 242 246 245 241 239 237 230 224 222 220 217 215 215 214 213 213 217 221 224 227 231 236 240 244 247 250 254 259 263 264 264 265 272 278 282 281 277 272 273 276 279 281 285 288 287 288 295 304 308 310 312 312 314 317 320 324 328 330 326 321 323 331 332 329 328 327 322 317 314 314 314 314 314 316 320 322 323 319